Weather History for K0E0 - April, 2013

Change the Weather History Date:

Monday, April 1, 2013

  Actual Average (KABQ) Record (KABQ)
Temperature  
Mean Temperature 51 °F 52 °F  
Max Temperature 71 °F 65 °F 81 °F (2011)
Min Temperature 31 °F 39 °F 13 °F (1896)
Degree Days  
Heating Degree Days 14 13  
Month to date heating degree days 13  
Since 1 July heating degree days 3840  
Cooling Degree Days 0 0  
Month to date cooling degree days 0  
Year to date cooling degree days 0  
Growing Degree Days 1 (Base 50)    
Moisture  
Dew Point 20 °F    
Average Humidity 33    
Maximum Humidity 72    
Minimum Humidity 10    
Precipitation  
Precipitation 0.00 in 0.02 in 1.90 in (1905)
Month to date precipitation 0.02  
Year to date precipitation 1.45  
Snow  
Snow 0.00 in - - ()
Month to date snowfall  
Since 1 July snowfall  
Snow Depth -    
Sea Level Pressure  
Sea Level Pressure 30.04 in    
Wind  
Wind Speed 7 mph (WSW)    
Max Wind Speed 21 mph    
Max Gust Speed 25 mph    
Visibility 10 miles    
Events      
T = Trace of Precipitation, MM = Missing Value Source: NWS Daily Summary

Daily Weather History Graph

Daily Weather History Graph

Search for Another Location

Airport or City:

Trip Planner

Search our weather history database for the weather conditions in past years. The results will help you decide how hot, cold, wet, or windy it might be!

Date:

Astronomy

Apr. 01, 2013 Rise Set
Actual Time 6:50 AM MDT 7:25 PM MDT
Civil Twilight 6:24 AM MDT 7:51 PM MDT
Nautical Twilight 5:55 AM MDT 8:21 PM MDT
Astronomical Twilight 5:24 AM MDT 8:51 PM MDT
Moon 12:26 AM MDT (4/1) 10:50 AM MDT (4/1)
Length of Visible Light 13h 26m
Length of Day
12h 35m
Waning Gibbous, 66% of the Moon is Illuminated
Apr 1
Waning Gibbous
Apr 2
Last Quarter
Apr 10
New
Apr 18
First Quarter
Apr 25
Full

Hourly Weather History & Observations

Time (MDT) Temp. Windchill Dew Point Humidity Pressure Visibility Wind Dir Wind Speed Gust Speed Precip Events Conditions
12:15 AM 51.8 °F - 32.4 °F 48% 30.08 in 10.0 mi SE 10.4 mph - N/A   Mostly Cloudy
12:35 AM 51.3 °F - 32.4 °F 48% 30.08 in 10.0 mi SE 8.1 mph - N/A   Mostly Cloudy
12:55 AM 50.4 °F - 32.0 °F 49% 30.08 in 10.0 mi SSW 4.6 mph - N/A   Scattered Clouds
1:15 AM 50.4 °F - 32.0 °F 49% 30.08 in 10.0 mi South 5.8 mph - N/A   Mostly Cloudy
1:35 AM 47.1 °F - 30.4 °F 52% 30.08 in 10.0 mi WNW 4.6 mph - N/A   Mostly Cloudy
1:55 AM 43.9 °F 42.3 °F 28.4 °F 55% 30.08 in 10.0 mi NNW 3.5 mph - N/A   Mostly Cloudy
2:15 AM 43.7 °F 42.1 °F 27.9 °F 54% 30.08 in 10.0 mi North 3.5 mph - N/A   Overcast
2:35 AM 42.1 °F 40.2 °F 27.1 °F 55% 30.08 in 10.0 mi NNW 3.5 mph - N/A   Scattered Clouds
3:15 AM 41.7 °F - 27.3 °F 57% 30.08 in 10.0 mi Calm Calm - N/A   Clear
3:35 AM 37.8 °F - 26.2 °F 63% 30.07 in 10.0 mi Calm Calm - N/A   Clear
3:55 AM 39.4 °F - 28.0 °F 64% 30.07 in 10.0 mi Calm Calm - N/A   Clear
4:15 AM 37.0 °F 32.4 °F 25.3 °F 63% 30.07 in 10.0 mi NW 5.8 mph - N/A   Clear
4:35 AM 33.8 °F 27.7 °F 23.9 °F 67% 30.08 in 10.0 mi NW 6.9 mph - N/A   Clear
5:15 AM 32.0 °F - 22.3 °F 67% 30.08 in 10.0 mi Calm Calm - N/A   Clear
5:35 AM 33.1 °F 30.0 °F 23.7 °F 68% 30.08 in 10.0 mi ENE 3.5 mph - N/A   Clear
5:55 AM 31.8 °F 27.3 °F 22.6 °F 69% 30.08 in 10.0 mi North 4.6 mph - N/A   Clear
6:15 AM 31.1 °F 24.5 °F 22.1 °F 69% 30.09 in 10.0 mi NNE 6.9 mph - N/A   Clear
6:35 AM 32.4 °F - 23.4 °F 69% 30.09 in 10.0 mi Calm Calm - N/A   Clear
6:55 AM 32.5 °F 28.1 °F 24.4 °F 72% 30.09 in 10.0 mi East 4.6 mph - N/A   Clear
7:15 AM 35.2 °F 32.4 °F 25.2 °F 67% 30.09 in 10.0 mi NE 3.5 mph - N/A   Clear
7:35 AM 36.7 °F 31.2 °F 25.3 °F 64% 30.11 in 10.0 mi East 6.9 mph - N/A   Clear
7:55 AM 46.2 °F 45.0 °F 26.2 °F 46% 30.11 in 10.0 mi North 3.5 mph - N/A   Clear
8:15 AM 49.6 °F - 24.6 °F 38% 30.12 in 10.0 mi East 4.6 mph - N/A   Clear
8:35 AM 52.3 °F - 24.1 °F 33% 30.12 in 10.0 mi Calm Calm - N/A   Clear
8:55 AM 55.4 °F - 24.6 °F 30% 30.12 in 10.0 mi Calm Calm - N/A   Clear
9:15 AM 56.5 °F - 24.6 °F 29% 30.12 in 10.0 mi South 4.6 mph - N/A   Clear
9:35 AM 57.2 °F - 24.8 °F 29% 30.12 in 10.0 mi SSE 3.5 mph - N/A   Clear
10:15 AM 61.3 °F - 25.7 °F 26% 30.12 in 10.0 mi SSE 6.9 mph - N/A   Clear
10:35 AM 62.6 °F - 24.8 °F 24% 30.11 in 10.0 mi Calm Calm - N/A   Clear
11:15 AM 66.0 °F - 17.1 °F 15% 30.10 in 10.0 mi West 16.1 mph 21.9 mph N/A   Clear
11:35 AM 66.7 °F - 15.8 °F 14% 30.10 in 10.0 mi West 11.5 mph 20.7 mph N/A   Clear
12:15 PM 66.4 °F - 14.9 °F 14% 30.10 in 10.0 mi West 12.7 mph 18.4 mph N/A   Clear
12:35 PM 66.7 °F - 12.6 °F 12% 30.08 in 10.0 mi West 6.9 mph 19.6 mph N/A   Clear
12:55 PM 67.6 °F - 13.8 °F 13% 30.08 in 10.0 mi WSW 9.2 mph 17.3 mph N/A   Clear
1:15 PM 69.1 °F - 13.1 °F 12% 30.07 in 10.0 mi South 12.7 mph 17.3 mph N/A   Clear
1:35 PM 69.3 °F - 13.5 °F 12% 30.06 in 10.0 mi WSW 17.3 mph 23.0 mph N/A   Clear
1:55 PM 70.0 °F - 12.2 °F 11% 30.05 in 10.0 mi SW 18.4 mph 25.3 mph N/A   Clear
2:15 PM 70.5 °F - 13.1 °F 11% 30.04 in 10.0 mi WSW 15.0 mph 18.4 mph N/A   Clear
2:35 PM 70.0 °F - 12.4 °F 11% 30.04 in 10.0 mi West 13.8 mph 21.9 mph N/A   Clear
2:55 PM 71.1 °F - 12.4 °F 10% 30.03 in 10.0 mi West 18.4 mph 25.3 mph N/A   Clear
3:15 PM 69.8 °F - 11.8 °F 11% 30.02 in 10.0 mi WSW 13.8 mph 21.9 mph N/A   Clear
3:35 PM 70.9 °F - 13.3 °F 11% 30.01 in 10.0 mi West 10.4 mph 23.0 mph N/A   Clear
3:55 PM 70.7 °F - 12.9 °F 11% 30.00 in 10.0 mi Calm Calm - N/A   Clear
4:15 PM 69.6 °F - 12.7 °F 11% 29.99 in 10.0 mi SSW 11.5 mph 16.1 mph N/A   Clear
4:35 PM 71.4 °F - 12.2 °F 10% 29.98 in 10.0 mi WSW 20.7 mph - N/A   Clear
4:55 PM 70.5 °F - 12.2 °F 11% 29.97 in 10.0 mi WSW 9.2 mph 13.8 mph N/A   Clear
5:15 PM 70.5 °F - 12.7 °F 11% 29.96 in 10.0 mi WSW 9.2 mph - N/A   Clear
5:35 PM 70.5 °F - 12.2 °F 11% 29.96 in 10.0 mi WSW 11.5 mph - N/A   Clear
5:55 PM 69.8 °F - 12.6 °F 11% 29.96 in 10.0 mi SW 8.1 mph - N/A   Clear
6:15 PM 69.4 °F - 12.4 °F 11% 29.96 in 10.0 mi West 8.1 mph - N/A   Clear
6:35 PM 68.5 °F - 12.9 °F 12% 29.95 in 10.0 mi SW 9.2 mph - N/A   Clear
6:55 PM 67.1 °F - 12.9 °F 12% 29.96 in 10.0 mi SW 9.2 mph - N/A   Clear
7:15 PM 63.7 °F - 12.4 °F 14% 29.96 in 10.0 mi South 6.9 mph - N/A   Clear
7:35 PM 60.1 °F - 12.6 °F 15% 29.96 in 10.0 mi SSW 6.9 mph - N/A   Clear
7:55 PM 58.5 °F - 12.6 °F 16% 29.96 in 10.0 mi SSE 3.5 mph - N/A   Clear
8:15 PM 55.4 °F - 12.4 °F 18% 29.96 in 10.0 mi Calm Calm - N/A   Clear
8:35 PM 58.6 °F - 12.2 °F 16% 29.96 in 10.0 mi Calm Calm - N/A   Clear
8:55 PM 52.5 °F - 10.9 °F 19% 29.98 in 10.0 mi Calm Calm - N/A   Clear
9:15 PM 52.7 °F - 12.2 °F 20% 29.98 in 10.0 mi Calm Calm - N/A   Clear
9:35 PM 51.8 °F - 11.8 °F 20% 29.98 in 10.0 mi NW 4.6 mph - N/A   Clear
9:55 PM 50.2 °F - 11.8 °F 22% 29.98 in 10.0 mi Calm Calm - N/A   Clear
10:15 PM 48.2 °F - 11.1 °F 22% 29.99 in 10.0 mi NW 4.6 mph - N/A   Clear
10:35 PM 48.7 °F - 14.0 °F 25% 30.01 in 10.0 mi NNE 6.9 mph - N/A   Clear
10:55 PM 47.8 °F - 25.0 °F 41% 30.02 in 10.0 mi East 6.9 mph - N/A   Clear
11:15 PM 45.9 °F 41.2 °F 27.5 °F 49% 30.02 in 10.0 mi ENE 9.2 mph - N/A   Clear
11:35 PM 45.0 °F 40.6 °F 28.6 °F 53% 30.02 in 10.0 mi ENE 8.1 mph - N/A   Clear
11:55 PM 44.6 °F 38.8 °F 29.3 °F 55% 30.02 in 10.0 mi East 11.5 mph - N/A   Clear